Retour au catalogue

RADUGA 1-1

ActifCommunicationsGEO
NORAD 20083·PAYLOAD·🇷🇺 Russia

Lancé Jun 21, 1989 depuis Baikonur Cosmodrome

Loading…

TLE

FraisSource: Space-Track

Époque: Sep 13, 2026, 22:28 UTC

1 20083U 89048A   26256.93636281 -.00000148  00000-0  00000-0 0  9995
2 20083  12.6366 334.6310 0018572 153.9235 215.6823  0.98710437132158

Suivez RADUGA 1-1 en temps réel avec AllMySat

Download on the App Store